York, PA

8:32 PM EST on December 06, 2019 (GMT -0500)
York

Weather History for KTHV - October, 2019

Change the Weather History Date:

Friday, October 18, 2019

  Actual Average Record
Temperature  
Mean Temperature 50 °F -  
Max Temperature 62 °F 0 °F 84 °F (2016)
Min Temperature 39 °F - 28 °F (2015)
Degree Days  
Heating Degree Days 15    
Moisture  
Dew Point 35 °F    
Average Humidity 57    
Maximum Humidity 79    
Minimum Humidity 36    
Precipitation  
Precipitation 0.00 in - - ()
Sea Level Pressure  
Sea Level Pressure 29.94 in    
Wind  
Wind Speed 8 mph ()    
Max Wind Speed 14 mph    
Max Gust Speed 22 mph    
Visibility 10.0 miles    
Events      
Averages and records for this station are not official NWS values.
T = Trace of Precipitation, MM = Missing Value Source: Averaged Metar Reports

Daily Weather History Graph

Daily Weather History Graph

Search for Another Location

Airport or City:

Astronomy

Oct. 18, 2019 Rise Set
Actual Time 7:20 AM EDT 6:23 PM EDT
Civil Twilight 6:53 AM EDT 6:51 PM EDT
Nautical Twilight 6:21 AM EDT 7:22 PM EDT
Astronomical Twilight 5:50 AM EDT 7:53 PM EDT
Moon 9:39 PM EDT (10/18) 11:51 AM EDT (10/18)
Length of Visible Light 11h 57m
Length of Day
11h 03m
Waning Gibbous, 79% of the Moon is Illuminated
Oct 18
Waning Gibbous
Oct 21
Last Quarter
Oct 27
New
Nov 4
First Quarter
Nov 12
Full

Hourly Weather History & Observations

Time (EDT) Temp. Windchill Dew Point Humidity Pressure Visibility Wind Dir Wind Speed Gust Speed Precip Events Conditions
12:53 AM 48.9 °F - 36.0 °F 61% 29.82 in 10.0 mi WNW 8.1 mph - N/A   Overcast
1:53 AM 48.9 °F - 36.0 °F 61% 29.82 in 10.0 mi WNW 8.1 mph 18.4 mph N/A   Overcast
2:53 AM 48.9 °F - 36.0 °F 61% 29.83 in 10.0 mi WNW 9.2 mph - N/A   Overcast
3:53 AM 48.9 °F - 35.1 °F 59% 29.83 in 10.0 mi WNW 12.7 mph 19.6 mph N/A   Overcast
4:53 AM 46.9 °F - 34.0 °F 61% 29.85 in 10.0 mi WNW 8.1 mph - N/A   Clear
5:53 AM 46.0 °F 41.0 °F 34.0 °F 63% 29.87 in 10.0 mi WNW 10.4 mph 16.1 mph N/A   Partly Cloudy
6:53 AM 46.9 °F - 34.0 °F 61% 29.90 in 10.0 mi WNW 10.4 mph - N/A   Overcast
7:53 AM 48.0 °F - 35.1 °F 61% 29.91 in 10.0 mi NW 11.5 mph 18.4 mph N/A   Overcast
8:53 AM 48.9 °F - 34.0 °F 56% 29.94 in 10.0 mi WNW 10.4 mph - N/A   Overcast
9:53 AM 51.1 °F - 35.1 °F 54% 29.95 in 10.0 mi NW 10.4 mph 20.7 mph N/A   Overcast
10:53 AM 53.1 °F - 35.1 °F 50% 29.96 in 10.0 mi NNW 10.4 mph 20.7 mph N/A   Overcast
11:53 AM 54.0 °F - 35.1 °F 49% 29.96 in 10.0 mi North 9.2 mph - N/A   Partly Cloudy
12:53 PM 57.9 °F - 35.1 °F 42% 29.96 in 10.0 mi NW 13.8 mph 21.9 mph N/A   Clear
2:53 PM 61.0 °F - 34.0 °F 36% 29.94 in 10.0 mi NW 11.5 mph 21.9 mph N/A   Clear
3:53 PM 61.0 °F - 34.0 °F 36% 29.94 in 10.0 mi WNW 10.4 mph - N/A   Clear
4:53 PM 60.1 °F - 34.0 °F 38% 29.96 in 10.0 mi NW 11.5 mph - N/A   Clear
5:53 PM 57.0 °F - 33.1 °F 40% 29.97 in 10.0 mi NNW 9.2 mph - N/A   Clear
6:53 PM 52.0 °F - 34.0 °F 50% 30.00 in 10.0 mi WNW 3.5 mph - N/A   Clear
7:53 PM 43.0 °F - 35.1 °F 74% 30.02 in 10.0 mi Calm Calm - N/A   Clear
8:53 PM 41.0 °F 38.0 °F 35.1 °F 79% 30.04 in 10.0 mi West 4.6 mph - N/A   Clear
9:53 PM 39.9 °F 37.8 °F 34.0 °F 79% 30.06 in 10.0 mi West 3.5 mph - N/A   Clear
10:53 PM 44.1 °F 42.5 °F 35.1 °F 71% 30.07 in 10.0 mi West 3.5 mph - N/A   Clear
11:53 PM 42.1 °F 40.2 °F 34.0 °F 73% 30.07 in 10.0 mi West 3.5 mph - N/A   Clear